Time,TemperatureF,DewpointF,PressureIn,WindDirection,WindDirectionDegrees,WindSpeedMPH,WindSpeedGustMPH,Humidity,HourlyPrecipIn,Conditions,Clouds,dailyrainin,SolarRadiationWatts/m^2,SoftwareType,DateUTC
2013-08-10 00:01:00,58.7,54.8,30.09,WNW,296,0.0,0.0,87,0.00,OVC,,0.00,0.0,WeatherDisplay:10.37,2013-08-10 05:01:00,
2013-08-10 00:07:00,58.7,54.5,30.09,WNW,296,0.0,0.0,86,0.00,OVC,,0.00,0.0,WeatherDisplay:10.37,2013-08-10 05:07:00,
2013-08-10 00:12:00,58.6,54.7,30.09,WNW,296,0.0,0.0,87,0.00,OVC,,0.00,0.0,WeatherDisplay:10.37,2013-08-10 05:12:00,
2013-08-10 00:17:00,58.5,54.6,30.09,WNW,296,0.0,0.0,87,0.00,OVC,,0.00,0.0,WeatherDisplay:10.37,2013-08-10 05:17:00,
2013-08-10 00:22:00,58.5,54.6,30.09,North,360,2.3,0.0,87,0.00,OVC,,0.00,0.0,WeatherDisplay:10.37,2013-08-10 05:22:00,
2013-08-10 00:27:00,58.5,54.6,30.09,North,360,0.0,0.0,87,0.00,OVC,,0.00,0.0,WeatherDisplay:10.37,2013-08-10 05:27:00,
2013-08-10 00:32:00,58.5,54.6,30.09,North,360,0.0,0.0,87,0.00,OVC,,0.00,0.0,WeatherDisplay:10.37,2013-08-10 05:32:00,
2013-08-10 00:37:00,58.5,54.0,30.09,North,360,1.1,1.1,85,0.00,OVC,,0.00,0.0,WeatherDisplay:10.37,2013-08-10 05:37:00,
2013-08-10 00:42:00,58.7,54.5,30.09,NNW,347,0.0,0.0,86,0.00,OVC,,0.00,0.0,WeatherDisplay:10.37,2013-08-10 05:42:00,
2013-08-10 00:47:00,58.8,54.3,30.09,North,360,1.1,0.0,85,0.00,OVC,,0.00,0.0,WeatherDisplay:10.37,2013-08-10 05:47:00,
2013-08-10 00:52:00,58.9,54.1,30.09,NNE,22,1.1,1.1,84,0.00,OVC,,0.00,0.0,WeatherDisplay:10.37,2013-08-10 05:52:00,
2013-08-10 00:57:00,59.0,53.8,30.09,NNE,17,1.1,0.0,83,0.00,OVC,,0.00,0.0,WeatherDisplay:10.37,2013-08-10 05:57:00,
2013-08-10 01:02:00,59.1,54.6,30.09,NNE,17,0.0,0.0,85,0.00,OVC,,0.00,0.0,WeatherDisplay:10.37,2013-08-10 06:02:00,
2013-08-10 01:07:00,59.0,54.2,30.09,NNE,17,0.0,0.0,84,0.00,OVC,,0.00,0.0,WeatherDisplay:10.37,2013-08-10 06:07:00,
2013-08-10 01:12:00,58.8,54.0,30.09,NNE,17,0.0,0.0,84,0.00,OVC,,0.00,0.0,WeatherDisplay:10.37,2013-08-10 06:12:00,
2013-08-10 01:17:00,58.6,54.4,30.10,NNE,17,0.0,0.0,86,0.00,OVC,,0.00,0.0,WeatherDisplay:10.37,2013-08-10 06:17:00,
2013-08-10 01:22:00,58.4,53.9,30.09,NNE,17,1.1,1.1,85,0.00,OVC,,0.00,0.0,WeatherDisplay:10.37,2013-08-10 06:22:00,
2013-08-10 01:27:00,58.2,54.3,30.10,NNE,17,1.1,0.0,87,0.00,OVC,,0.00,0.0,WeatherDisplay:10.37,2013-08-10 06:27:00,
2013-08-10 01:32:00,58.0,53.8,30.10,NNE,17,0.0,0.0,86,0.00,OVC,,0.00,0.0,WeatherDisplay:10.37,2013-08-10 06:32:00,
2013-08-10 01:37:00,57.7,53.9,30.09,NNE,17,0.0,0.0,87,0.00,OVC,,0.00,0.0,WeatherDisplay:10.37,2013-08-10 06:37:00,
2013-08-10 01:42:00,57.5,53.7,30.10,NNE,17,0.0,0.0,87,0.00,OVC,,0.00,0.0,WeatherDisplay:10.37,2013-08-10 06:42:00,
2013-08-10 01:47:00,57.3,53.8,30.10,NNE,17,0.0,0.0,88,0.00,OVC,,0.00,0.0,WeatherDisplay:10.37,2013-08-10 06:47:00,
2013-08-10 01:52:00,57.1,53.6,30.10,NNE,17,0.0,0.0,88,0.00,OVC,,0.00,0.0,WeatherDisplay:10.37,2013-08-10 06:52:00,
2013-08-10 01:57:00,56.9,53.7,30.10,NNE,17,0.0,0.0,89,0.00,OVC,,0.00,0.0,WeatherDisplay:10.37,2013-08-10 06:57:00,
2013-08-10 02:02:00,56.7,53.5,30.09,NNE,17,0.0,0.0,89,0.00,OVC,,0.00,0.0,WeatherDisplay:10.37,2013-08-10 07:02:00,
2013-08-10 02:07:00,56.4,53.2,30.09,NNE,17,0.0,0.0,89,0.00,OVC,,0.00,0.0,WeatherDisplay:10.37,2013-08-10 07:07:00,
2013-08-10 02:12:00,56.2,53.3,30.09,NNE,17,0.0,0.0,90,0.00,OVC,,0.00,0.0,WeatherDisplay:10.37,2013-08-10 07:12:00,
2013-08-10 02:17:00,56.0,53.1,30.10,NNE,17,0.0,0.0,90,0.00,OVC,,0.00,0.0,WeatherDisplay:10.37,2013-08-10 07:17:00,
2013-08-10 02:22:00,55.8,52.9,30.10,NNE,17,0.0,0.0,90,0.00,OVC,,0.00,0.0,WeatherDisplay:10.37,2013-08-10 07:22:00,
2013-08-10 02:27:00,55.7,53.1,30.10,NNE,17,0.0,0.0,91,0.00,OVC,,0.00,0.0,WeatherDisplay:10.37,2013-08-10 07:27:00,
2013-08-10 02:32:00,55.7,53.1,30.10,NNE,17,0.0,0.0,91,0.00,OVC,,0.00,0.0,WeatherDisplay:10.37,2013-08-10 07:32:00,
2013-08-10 02:37:00,55.6,53.0,30.10,NNE,17,0.0,0.0,91,0.00,OVC,,0.00,0.0,WeatherDisplay:10.37,2013-08-10 07:37:00,
2013-08-10 02:42:00,55.5,52.9,30.10,NNE,17,0.0,0.0,91,0.00,OVC,,0.00,0.0,WeatherDisplay:10.37,2013-08-10 07:42:00,
2013-08-10 02:47:00,55.5,52.9,30.10,NNE,17,0.0,0.0,91,0.00,OVC,,0.00,0.0,WeatherDisplay:10.37,2013-08-10 07:47:00,
2013-08-10 02:52:00,55.5,52.9,30.10,NNE,17,0.0,0.0,91,0.00,OVC,,0.00,0.0,WeatherDisplay:10.37,2013-08-10 07:52:00,
2013-08-10 02:57:00,55.5,53.2,30.11,NNE,17,0.0,0.0,92,0.00,OVC,,0.00,0.0,WeatherDisplay:10.37,2013-08-10 07:57:00,
2013-08-10 03:02:00,55.4,53.1,30.11,NNE,17,0.0,0.0,92,0.00,OVC,,0.00,0.0,WeatherDisplay:10.37,2013-08-10 08:02:00,
2013-08-10 03:07:00,55.4,53.1,30.11,NNE,17,0.0,0.0,92,0.00,OVC,,0.00,0.0,WeatherDisplay:10.37,2013-08-10 08:07:00,
2013-08-10 03:12:00,55.4,53.1,30.11,NNE,17,0.0,0.0,92,0.00,OVC,,0.00,0.0,WeatherDisplay:10.37,2013-08-10 08:12:00,
2013-08-10 03:17:00,55.4,53.1,30.11,NNE,17,0.0,0.0,92,0.00,OVC,,0.00,0.0,WeatherDisplay:10.37,2013-08-10 08:17:00,
2013-08-10 03:22:00,55.4,53.1,30.11,NNE,17,0.0,0.0,92,0.00,OVC,,0.00,0.0,WeatherDisplay:10.37,2013-08-10 08:22:00,
2013-08-10 03:27:00,55.4,53.1,30.11,NNE,17,0.0,0.0,92,0.00,OVC,,0.00,0.0,WeatherDisplay:10.37,2013-08-10 08:27:00,
2013-08-10 03:32:00,55.4,53.1,30.11,NNE,17,0.0,0.0,92,0.00,OVC,,0.00,0.0,WeatherDisplay:10.37,2013-08-10 08:32:00,
2013-08-10 03:37:00,55.3,53.0,30.11,NNE,17,0.0,0.0,92,0.00,OVC,,0.00,0.0,WeatherDisplay:10.37,2013-08-10 08:37:00,
2013-08-10 03:42:00,55.4,53.1,30.12,NNE,17,0.0,0.0,92,0.00,OVC,,0.00,0.0,WeatherDisplay:10.37,2013-08-10 08:42:00,
2013-08-10 03:47:00,55.4,53.1,30.12,NNE,17,0.0,0.0,92,0.00,OVC,,0.00,0.0,WeatherDisplay:10.37,2013-08-10 08:47:00,
2013-08-10 03:52:00,55.4,53.4,30.12,NNE,17,0.0,0.0,93,0.00,OVC,,0.00,0.0,WeatherDisplay:10.37,2013-08-10 08:52:00,
2013-08-10 03:57:00,55.3,53.3,30.12,NNE,17,0.0,0.0,93,0.00,OVC,,0.00,0.0,WeatherDisplay:10.37,2013-08-10 08:57:00,
2013-08-10 04:02:00,55.3,53.3,30.12,NNE,17,0.0,0.0,93,0.00,OVC,,0.00,0.0,WeatherDisplay:10.37,2013-08-10 09:02:00,
2013-08-10 04:07:00,55.3,53.3,30.12,NNE,17,0.0,0.0,93,0.00,OVC,,0.00,0.0,WeatherDisplay:10.37,2013-08-10 09:07:00,
2013-08-10 04:12:00,55.3,53.3,30.12,NNE,17,0.0,0.0,93,0.00,OVC,,0.00,0.0,WeatherDisplay:10.37,2013-08-10 09:12:00,
2013-08-10 04:17:00,55.3,53.3,30.13,NNE,17,0.0,0.0,93,0.00,OVC,,0.00,0.0,WeatherDisplay:10.37,2013-08-10 09:17:00,
2013-08-10 04:22:00,55.3,53.3,30.12,NNE,17,0.0,0.0,93,0.00,OVC,,0.00,0.0,WeatherDisplay:10.37,2013-08-10 09:22:00,
2013-08-10 04:27:00,55.3,53.3,30.12,NNE,17,0.0,0.0,93,0.00,OVC,,0.00,0.0,WeatherDisplay:10.37,2013-08-10 09:27:00,
2013-08-10 04:32:00,55.3,53.3,30.12,NNE,17,0.0,0.0,93,0.00,OVC,,0.00,0.0,WeatherDisplay:10.37,2013-08-10 09:32:00,
2013-08-10 04:37:00,55.2,53.2,30.12,NNE,17,0.0,0.0,93,0.00,OVC,,0.00,0.0,WeatherDisplay:10.37,2013-08-10 09:37:00,
2013-08-10 04:42:00,55.3,53.3,30.13,NNE,17,0.0,0.0,93,0.00,OVC,,0.00,0.0,WeatherDisplay:10.37,2013-08-10 09:42:00,
2013-08-10 04:47:00,55.3,53.3,30.13,NNE,17,0.0,0.0,93,0.00,OVC,,0.00,0.0,WeatherDisplay:10.37,2013-08-10 09:47:00,
2013-08-10 04:52:00,55.3,53.3,30.13,NNE,17,0.0,0.0,93,0.00,OVC,,0.00,0.0,WeatherDisplay:10.37,2013-08-10 09:52:00,
2013-08-10 04:57:00,55.3,53.3,30.13,NNE,17,0.0,0.0,93,0.00,OVC,,0.00,0.0,WeatherDisplay:10.37,2013-08-10 09:57:00,
2013-08-10 05:02:00,55.3,53.3,30.13,NNE,17,0.0,0.0,93,0.00,OVC,,0.00,0.0,WeatherDisplay:10.37,2013-08-10 10:02:00,
2013-08-10 05:07:00,55.3,53.3,30.13,NNE,17,0.0,0.0,93,0.00,OVC,,0.00,0.0,WeatherDisplay:10.37,2013-08-10 10:07:00,
2013-08-10 05:12:00,55.3,53.3,30.13,NNE,17,0.0,0.0,93,0.00,OVC,,0.00,0.0,WeatherDisplay:10.37,2013-08-10 10:12:00,
2013-08-10 05:17:00,55.3,53.3,30.13,NNE,17,0.0,0.0,93,0.00,OVC,,0.00,0.0,WeatherDisplay:10.37,2013-08-10 10:17:00,
2013-08-10 05:22:00,55.3,53.3,30.13,NNE,17,0.0,0.0,93,0.00,OVC,,0.00,0.0,WeatherDisplay:10.37,2013-08-10 10:22:00,
2013-08-10 05:27:00,55.2,53.2,30.13,NNE,17,0.0,0.0,93,0.00,OVC,,0.00,0.0,WeatherDisplay:10.37,2013-08-10 10:27:00,
2013-08-10 05:32:00,55.2,53.2,30.13,NNE,17,0.0,0.0,93,0.00,OVC,,0.00,0.0,WeatherDisplay:10.37,2013-08-10 10:32:00,
2013-08-10 05:37:00,55.3,53.6,30.13,NNE,17,0.0,0.0,94,0.00,OVC,,0.00,0.0,WeatherDisplay:10.37,2013-08-10 10:37:00,
2013-08-10 05:38:00,55.3,53.6,30.13,NNE,17,0.0,0.0,94,0.00,OVC,,0.00,0.0,WeatherDisplay:10.37,2013-08-10 10:38:00,
2013-08-10 05:43:00,55.3,53.6,30.13,NNE,17,0.0,0.0,94,0.00,OVC,,0.00,0.0,WeatherDisplay:10.37,2013-08-10 10:43:00,
2013-08-10 05:48:00,55.3,53.6,30.13,NNE,17,0.0,0.0,94,0.00,OVC,,0.00,0.0,WeatherDisplay:10.37,2013-08-10 10:48:00,
2013-08-10 05:53:00,55.3,53.6,30.13,NNE,17,0.0,0.0,94,0.00,OVC,,0.00,0.0,WeatherDisplay:10.37,2013-08-10 10:53:00,
2013-08-10 05:58:00,55.4,53.7,30.13,NNE,17,0.0,0.0,94,0.00,OVC,,0.00,0.0,WeatherDisplay:10.37,2013-08-10 10:58:00,
2013-08-10 06:03:00,55.4,53.7,30.13,NNE,17,0.0,0.0,94,0.00,OVC,,0.00,0.0,WeatherDisplay:10.37,2013-08-10 11:03:00,
2013-08-10 06:08:00,55.4,53.7,30.13,NNE,17,0.0,0.0,94,0.00,OVC,,0.00,0.0,WeatherDisplay:10.37,2013-08-10 11:08:00,
2013-08-10 06:13:00,55.3,53.6,30.13,NNE,17,0.0,0.0,94,0.00,OVC,,0.00,0.0,WeatherDisplay:10.37,2013-08-10 11:13:00,
2013-08-10 06:18:00,55.3,53.6,30.14,NNE,17,0.0,0.0,94,0.00,OVC,,0.00,5.0,WeatherDisplay:10.37,2013-08-10 11:18:00,
2013-08-10 06:23:00,55.4,53.7,30.14,NNE,17,0.0,0.0,94,0.00,OVC,,0.00,7.0,WeatherDisplay:10.37,2013-08-10 11:23:00,
2013-08-10 06:28:00,55.4,53.7,30.14,NNE,17,0.0,0.0,94,0.00,OVC,,0.00,7.0,WeatherDisplay:10.37,2013-08-10 11:28:00,
2013-08-10 06:33:00,55.4,53.7,30.14,NNE,17,0.0,0.0,94,0.00,OVC,,0.00,11.0,WeatherDisplay:10.37,2013-08-10 11:33:00,
2013-08-10 06:38:00,55.4,53.7,30.15,NNE,17,0.0,0.0,94,0.00,OVC,,0.00,11.0,WeatherDisplay:10.37,2013-08-10 11:38:00,
2013-08-10 06:43:00,55.4,53.7,30.15,NNE,17,0.0,0.0,94,0.00,OVC,,0.00,14.0,WeatherDisplay:10.37,2013-08-10 11:43:00,
2013-08-10 06:48:00,55.5,53.8,30.14,NNE,17,0.0,0.0,94,0.00,OVC,,0.00,16.0,WeatherDisplay:10.37,2013-08-10 11:48:00,
2013-08-10 06:53:00,55.5,53.8,30.14,NNE,17,0.0,0.0,94,0.00,OVC,,0.00,19.0,WeatherDisplay:10.37,2013-08-10 11:53:00,
2013-08-10 06:58:00,55.6,54.2,30.15,NNE,17,0.0,0.0,95,0.00,OVC,,0.00,23.0,WeatherDisplay:10.37,2013-08-10 11:58:00,
2013-08-10 07:03:00,55.7,54.3,30.15,NNE,17,0.0,0.0,95,0.00,OVC,,0.00,26.0,WeatherDisplay:10.37,2013-08-10 12:03:00,
2013-08-10 07:08:00,55.7,54.3,30.15,NNE,17,0.0,0.0,95,0.00,OVC,,0.00,30.0,WeatherDisplay:10.37,2013-08-10 12:08:00,
2013-08-10 07:13:00,55.8,54.4,30.15,NNE,17,0.0,0.0,95,0.00,OVC,,0.00,33.0,WeatherDisplay:10.37,2013-08-10 12:13:00,
2013-08-10 07:18:00,55.9,54.5,30.15,NNE,17,0.0,0.0,95,0.00,OVC,,0.00,39.0,WeatherDisplay:10.37,2013-08-10 12:18:00,
2013-08-10 07:23:00,56.1,54.7,30.15,NNE,17,0.0,0.0,95,0.00,OVC,,0.00,39.0,WeatherDisplay:10.37,2013-08-10 12:23:00,
2013-08-10 07:28:00,56.2,54.8,30.15,NNE,17,0.0,0.0,95,0.00,OVC,,0.00,40.0,WeatherDisplay:10.37,2013-08-10 12:28:00,
2013-08-10 07:33:00,56.4,55.0,30.15,NNE,17,0.0,0.0,95,0.00,OVC,,0.00,47.0,WeatherDisplay:10.37,2013-08-10 12:33:00,
2013-08-10 07:38:00,56.6,55.2,30.15,NNE,17,0.0,0.0,95,0.00,OVC,,0.00,51.0,WeatherDisplay:10.37,2013-08-10 12:38:00,
2013-08-10 07:43:00,56.7,55.0,30.15,NNE,17,0.0,0.0,94,0.00,OVC,,0.00,54.0,WeatherDisplay:10.37,2013-08-10 12:43:00,
2013-08-10 07:48:00,56.9,55.2,30.15,NNE,17,0.0,0.0,94,0.00,OVC,,0.00,56.0,WeatherDisplay:10.37,2013-08-10 12:48:00,
2013-08-10 07:53:00,57.1,55.4,30.15,NNE,17,0.0,0.0,94,0.00,OVC,,0.00,60.0,WeatherDisplay:10.37,2013-08-10 12:53:00,
2013-08-10 07:58:00,57.3,55.3,30.15,NNE,17,0.0,0.0,93,0.00,OVC,,0.00,67.0,WeatherDisplay:10.37,2013-08-10 12:58:00,
2013-08-10 08:03:00,57.6,55.9,30.15,NNE,17,0.0,0.0,94,0.00,OVC,,0.00,74.0,WeatherDisplay:10.37,2013-08-10 13:03:00,
2013-08-10 08:08:00,57.8,55.8,30.15,NNE,17,0.0,0.0,93,0.00,OVC,,0.00,81.0,WeatherDisplay:10.37,2013-08-10 13:08:00,
2013-08-10 08:13:00,58.1,56.1,30.15,NNE,17,0.0,0.0,93,0.00,OVC,,0.00,88.0,WeatherDisplay:10.37,2013-08-10 13:13:00,
2013-08-10 08:18:00,58.4,56.4,30.15,NNE,17,0.0,0.0,93,0.00,OVC,,0.00,93.0,WeatherDisplay:10.37,2013-08-10 13:18:00,
2013-08-10 08:23:00,58.6,56.6,30.15,NNE,17,0.0,0.0,93,0.00,OVC,,0.00,100.0,WeatherDisplay:10.37,2013-08-10 13:23:00,
2013-08-10 08:28:00,58.9,56.6,30.15,NNE,17,0.0,0.0,92,0.00,OVC,,0.00,105.0,WeatherDisplay:10.37,2013-08-10 13:28:00,
2013-08-10 08:33:00,59.2,56.6,30.15,NNE,17,0.0,0.0,91,0.00,OVC,,0.00,113.0,WeatherDisplay:10.37,2013-08-10 13:33:00,
2013-08-10 08:38:00,59.5,56.6,30.15,NNE,17,0.0,0.0,90,0.00,OVC,,0.00,118.0,WeatherDisplay:10.37,2013-08-10 13:38:00,
2013-08-10 08:43:00,59.9,56.6,30.15,NNE,17,0.0,0.0,89,0.00,OVC,,0.00,125.0,WeatherDisplay:10.37,2013-08-10 13:43:00,
2013-08-10 08:48:00,60.2,56.9,30.15,NNE,17,0.0,0.0,89,0.00,OVC,,0.00,135.0,WeatherDisplay:10.37,2013-08-10 13:48:00,
2013-08-10 08:53:00,60.5,57.2,30.15,NNE,17,0.0,0.0,89,0.00,OVC,,0.00,149.0,WeatherDisplay:10.37,2013-08-10 13:53:00,
2013-08-10 08:58:00,60.8,56.9,30.15,NNE,17,0.0,0.0,87,0.00,OVC,,0.00,155.0,WeatherDisplay:10.37,2013-08-10 13:58:00,
2013-08-10 09:03:00,61.1,56.6,30.15,WSW,251,2.3,2.3,85,0.00,OVC,,0.00,155.0,WeatherDisplay:10.37,2013-08-10 14:03:00,
2013-08-10 09:08:00,61.5,57.6,30.15,WSW,251,0.0,0.0,87,0.00,OVC,,0.00,158.0,WeatherDisplay:10.37,2013-08-10 14:08:00,
2013-08-10 09:13:00,61.7,57.5,30.15,WSW,251,0.0,0.0,86,0.00,OVC,,0.00,163.0,WeatherDisplay:10.37,2013-08-10 14:13:00,
2013-08-10 09:18:00,62.0,56.8,30.15,WSW,251,1.1,0.0,83,0.00,OVC,,0.00,171.0,WeatherDisplay:10.37,2013-08-10 14:18:00,
2013-08-10 09:23:00,62.2,57.3,30.15,WSW,251,1.1,0.0,84,0.00,OVC,,0.00,176.0,WeatherDisplay:10.37,2013-08-10 14:23:00,
2013-08-10 09:28:00,62.5,57.3,30.15,WSW,251,0.0,0.0,83,0.00,OVC,,0.00,183.0,WeatherDisplay:10.37,2013-08-10 14:28:00,
2013-08-10 09:33:00,62.8,57.2,30.15,West,259,1.1,1.1,82,0.00,OVC,,0.00,188.0,WeatherDisplay:10.37,2013-08-10 14:33:00,
2013-08-10 09:38:00,62.9,57.3,30.15,WSW,241,1.1,1.1,82,0.00,OVC,,0.00,192.0,WeatherDisplay:10.37,2013-08-10 14:38:00,
2013-08-10 09:43:00,63.0,57.1,30.15,WSW,243,3.5,0.0,81,0.00,OVC,,0.00,192.0,WeatherDisplay:10.37,2013-08-10 14:43:00,
2013-08-10 09:48:00,63.0,57.1,30.16,WSW,252,1.1,0.0,81,0.00,OVC,,0.00,193.0,WeatherDisplay:10.37,2013-08-10 14:48:00,
2013-08-10 09:53:00,63.1,57.9,30.15,WSW,249,1.1,0.0,83,0.00,OVC,,0.00,206.0,WeatherDisplay:10.37,2013-08-10 14:53:00,
2013-08-10 09:58:00,63.3,57.4,30.15,WSW,246,1.1,0.0,81,0.00,OVC,,0.00,220.0,WeatherDisplay:10.37,2013-08-10 14:58:00,
2013-08-10 10:03:00,63.5,57.6,30.16,WSW,246,0.0,0.0,81,0.00,OVC,,0.00,229.0,WeatherDisplay:10.37,2013-08-10 15:03:00,
2013-08-10 10:08:00,63.8,57.5,30.15,WSW,248,1.1,1.1,80,0.00,OVC,,0.00,234.0,WeatherDisplay:10.37,2013-08-10 15:08:00,
2013-08-10 10:13:00,64.1,58.5,30.15,WSW,248,1.1,1.1,82,0.00,OVC,,0.00,243.0,WeatherDisplay:10.37,2013-08-10 15:13:00,
2013-08-10 10:18:00,64.3,58.3,30.15,WSW,248,1.1,1.1,81,0.00,OVC,,0.00,243.0,WeatherDisplay:10.37,2013-08-10 15:18:00,
2013-08-10 10:23:00,64.4,57.7,30.16,WSW,248,1.1,0.0,79,0.00,OVC,,0.00,246.0,WeatherDisplay:10.37,2013-08-10 15:23:00,
2013-08-10 10:28:00,64.4,57.4,30.15,WSW,248,1.1,1.1,78,0.00,OVC,,0.00,250.0,WeatherDisplay:10.37,2013-08-10 15:28:00,
2013-08-10 10:34:00,64.7,58.0,30.16,WSW,248,1.1,1.1,79,0.00,OVC,,0.00,237.0,WeatherDisplay:10.37,2013-08-10 15:34:00,
2013-08-10 10:39:00,65.0,57.2,30.15,WSW,242,3.5,3.5,76,0.00,OVC,,0.00,267.0,WeatherDisplay:10.37,2013-08-10 15:39:00,
2013-08-10 10:44:00,65.4,59.1,30.15,WSW,242,1.1,1.1,80,0.00,OVC,,0.00,301.0,WeatherDisplay:10.37,2013-08-10 15:44:00,
2013-08-10 10:49:00,65.7,57.6,30.16,SW,230,0.0,0.0,75,0.00,OVC,,0.00,301.0,WeatherDisplay:10.37,2013-08-10 15:49:00,
2013-08-10 10:54:00,65.8,56.9,30.15,WSW,240,3.5,3.5,73,0.00,OVC,,0.00,302.0,WeatherDisplay:10.37,2013-08-10 15:54:00,
2013-08-10 10:59:00,65.9,57.4,30.15,SSW,206,1.1,1.1,74,0.00,OVC,,0.00,258.0,WeatherDisplay:10.37,2013-08-10 15:59:00,
2013-08-10 11:04:00,66.0,57.5,30.15,SW,226,2.3,2.3,74,0.00,OVC,,0.00,267.0,WeatherDisplay:10.37,2013-08-10 16:04:00,
2013-08-10 11:09:00,66.3,57.0,30.15,SSW,208,2.3,2.3,72,0.00,OVC,,0.00,336.0,WeatherDisplay:10.37,2013-08-10 16:09:00,
2013-08-10 11:14:00,66.5,56.8,30.15,WNW,288,2.3,2.3,71,0.00,OVC,,0.00,330.0,WeatherDisplay:10.37,2013-08-10 16:14:00,
2013-08-10 11:19:00,66.7,57.4,30.15,SW,229,1.1,1.1,72,0.00,OVC,,0.00,334.0,WeatherDisplay:10.37,2013-08-10 16:19:00,
2013-08-10 11:24:00,66.8,56.7,30.15,SW,215,2.3,2.3,70,0.00,OVC,,0.00,353.0,WeatherDisplay:10.37,2013-08-10 16:24:00,
2013-08-10 11:29:00,66.8,56.7,30.15,SW,233,2.0,2.0,70,0.00,OVC,,0.00,371.0,WeatherDisplay:10.37,2013-08-10 16:29:00,
2013-08-10 11:34:00,67.1,57.4,30.15,West,269,1.0,1.0,71,0.00,OVC,,0.00,411.0,WeatherDisplay:10.37,2013-08-10 16:34:00,
2013-08-10 11:39:00,67.6,58.2,30.15,WNW,292,1.1,0.0,72,0.00,OVC,,0.00,394.0,WeatherDisplay:10.37,2013-08-10 16:39:00,
2013-08-10 11:44:00,68.1,56.7,30.15,NE,56,2.3,2.3,67,0.00,OVC,,0.00,376.0,WeatherDisplay:10.37,2013-08-10 16:44:00,
2013-08-10 11:49:00,68.2,56.8,30.15,North,355,3.5,3.5,67,0.00,OVC,,0.00,359.0,WeatherDisplay:10.37,2013-08-10 16:49:00,
2013-08-10 11:54:00,68.3,57.3,30.16,WNW,283,1.1,1.1,68,0.00,OVC,,0.00,362.0,WeatherDisplay:10.37,2013-08-10 16:54:00,
2013-08-10 11:59:00,68.5,56.3,30.15,SW,234,3.5,3.5,65,0.00,OVC,,0.00,406.0,WeatherDisplay:10.37,2013-08-10 16:59:00,
2013-08-10 12:04:00,68.6,55.9,30.15,West,275,3.5,3.5,64,0.00,OVC,,0.00,434.0,WeatherDisplay:10.37,2013-08-10 17:04:00,
2013-08-10 12:09:00,68.6,58.0,30.15,WNW,294,1.1,1.1,69,0.00,OVC,,0.00,446.0,WeatherDisplay:10.37,2013-08-10 17:09:00,
2013-08-10 12:14:00,68.9,57.5,30.15,NE,43,3.5,3.5,67,0.00,OVC,,0.00,599.0,WeatherDisplay:10.37,2013-08-10 17:14:00,
2013-08-10 12:19:00,69.1,57.3,30.15,West,279,3.5,3.5,66,0.00,OVC,,0.00,429.0,WeatherDisplay:10.37,2013-08-10 17:19:00,
2013-08-10 12:24:00,69.3,56.6,30.15,WNW,290,1.1,1.1,64,0.00,OVC,,0.00,555.0,WeatherDisplay:10.37,2013-08-10 17:24:00,
2013-08-10 12:29:00,69.5,57.2,30.15,North,5,3.5,3.5,65,0.00,OVC,,0.00,617.0,WeatherDisplay:10.37,2013-08-10 17:29:00,
2013-08-10 12:34:00,69.7,56.5,30.15,NE,34,2.3,2.3,63,0.00,OVC,,0.00,884.0,WeatherDisplay:10.37,2013-08-10 17:34:00,
2013-08-10 12:39:00,70.1,57.4,30.15,SW,216,3.5,3.5,64,0.00,OVC,,0.00,1074.0,WeatherDisplay:10.37,2013-08-10 17:39:00,
2013-08-10 12:44:00,71.1,57.0,30.15,West,269,3.5,3.5,61,0.00,OVC,,0.00,1148.0,WeatherDisplay:10.37,2013-08-10 17:44:00,
2013-08-10 12:49:00,71.4,55.9,30.15,SW,236,4.6,4.6,58,0.00,OVC,,0.00,520.0,WeatherDisplay:10.37,2013-08-10 17:49:00,
2013-08-10 12:54:00,71.3,58.9,30.15,WSW,252,1.1,1.1,65,0.00,OVC,,0.00,346.0,WeatherDisplay:10.37,2013-08-10 17:54:00,
2013-08-10 12:59:00,71.1,55.1,30.15,WSW,238,3.0,3.0,57,0.00,OVC,,0.00,345.0,WeatherDisplay:10.37,2013-08-10 17:59:00,
2013-08-10 13:04:00,70.9,55.9,30.15,WSW,252,3.0,3.0,59,0.00,OVC,,0.00,403.0,WeatherDisplay:10.37,2013-08-10 18:04:00,
2013-08-10 13:09:00,70.7,54.7,30.15,West,259,3.5,3.5,57,0.00,OVC,,0.00,418.0,WeatherDisplay:10.37,2013-08-10 18:09:00,
2013-08-10 13:14:00,70.7,54.7,30.15,SW,231,3.5,3.5,57,0.00,OVC,,0.00,487.0,WeatherDisplay:10.37,2013-08-10 18:14:00,
2013-08-10 13:19:00,71.0,53.5,30.15,NNE,27,1.1,1.1,54,0.00,OVC,,0.00,471.0,WeatherDisplay:10.37,2013-08-10 18:19:00,
2013-08-10 13:24:00,71.0,54.5,30.15,WSW,257,3.5,3.5,56,0.00,OVC,,0.00,290.0,WeatherDisplay:10.37,2013-08-10 18:24:00,
2013-08-10 13:29:00,70.7,54.7,30.15,NW,315,2.3,2.3,57,0.00,OVC,,0.00,265.0,WeatherDisplay:10.37,2013-08-10 18:29:00,
2013-08-10 13:34:00,70.4,57.2,30.15,SSW,197,1.1,1.1,63,0.00,OVC,,0.00,260.0,WeatherDisplay:10.37,2013-08-10 18:34:00,
2013-08-10 13:39:00,70.2,55.2,30.15,North,5,3.5,3.5,59,0.00,OVC,,0.00,260.0,WeatherDisplay:10.37,2013-08-10 18:39:00,
2013-08-10 13:44:00,70.1,57.4,30.15,North,9,0.0,0.1,64,0.00,OVC,,0.00,267.0,WeatherDisplay:10.37,2013-08-10 18:44:00,
2013-08-10 13:49:00,70.0,54.5,30.15,NNE,13,1.1,1.1,58,0.00,OVC,,0.00,299.0,WeatherDisplay:10.37,2013-08-10 18:49:00,
2013-08-10 13:54:00,70.2,57.4,30.15,NNE,14,2.0,2.0,64,0.00,OVC,,0.00,308.0,WeatherDisplay:10.37,2013-08-10 18:54:00,
2013-08-10 13:59:00,70.1,56.5,30.15,WNW,292,2.3,2.3,62,0.00,OVC,,0.00,355.0,WeatherDisplay:10.37,2013-08-10 18:59:00,
2013-08-10 14:04:00,69.9,54.4,30.15,WNW,282,3.5,3.5,58,0.00,OVC,,0.00,306.0,WeatherDisplay:10.37,2013-08-10 19:04:00,
2013-08-10 14:09:00,70.1,58.2,30.15,WNW,282,1.1,1.1,66,0.00,OVC,,0.00,234.0,WeatherDisplay:10.37,2013-08-10 19:09:00,
2013-08-10 14:14:00,70.0,57.3,30.15,NNE,16,2.3,2.3,64,0.00,OVC,,0.00,271.0,WeatherDisplay:10.37,2013-08-10 19:14:00,
2013-08-10 14:19:00,70.0,57.7,30.15,NNE,17,1.1,1.1,65,0.00,OVC,,0.00,267.0,WeatherDisplay:10.37,2013-08-10 19:19:00,
2013-08-10 14:24:00,70.0,55.0,30.15,NNW,334,1.1,1.1,59,0.00,OVC,,0.00,313.0,WeatherDisplay:10.37,2013-08-10 19:24:00,
2013-08-10 14:29:00,70.1,55.6,30.15,NNE,24,4.6,4.6,60,0.00,OVC,,0.00,295.0,WeatherDisplay:10.37,2013-08-10 19:29:00,
2013-08-10 14:34:00,70.2,55.2,30.14,North,360,0.0,0.0,59,0.00,OVC,,0.00,338.0,WeatherDisplay:10.37,2013-08-10 19:34:00,
2013-08-10 14:39:00,70.4,56.3,30.15,North,5,0.0,0.3,61,0.00,OVC,,0.00,429.0,WeatherDisplay:10.37,2013-08-10 19:39:00,
2013-08-10 14:44:00,70.9,55.4,30.14,NW,319,1.1,0.0,58,0.00,OVC,,0.00,687.0,WeatherDisplay:10.37,2013-08-10 19:44:00,
2013-08-10 14:49:00,72.0,58.3,30.14,West,262,4.0,4.0,62,0.00,OVC,,0.00,1079.0,WeatherDisplay:10.37,2013-08-10 19:49:00,
2013-08-10 14:54:00,72.4,55.3,30.14,NNE,17,1.1,1.1,55,0.00,OVC,,0.00,443.0,WeatherDisplay:10.37,2013-08-10 19:54:00,
2013-08-10 14:59:00,72.4,54.3,30.14,WNW,290,3.5,3.5,53,0.00,OVC,,0.00,392.0,WeatherDisplay:10.37,2013-08-10 19:59:00,
2013-08-10 15:04:00,72.5,53.9,30.14,NW,311,2.3,2.3,52,0.00,BKN,,0.00,392.0,WeatherDisplay:10.37,2013-08-10 20:04:00,
2013-08-10 15:09:00,72.4,55.3,30.14,NW,311,2.3,2.3,55,0.00,BKN,,0.00,432.0,WeatherDisplay:10.37,2013-08-10 20:09:00,
2013-08-10 15:14:00,72.4,53.2,30.14,NW,311,1.1,1.1,51,0.00,BKN,,0.00,406.0,WeatherDisplay:10.37,2013-08-10 20:14:00,
2013-08-10 15:19:00,72.5,55.9,30.13,NW,311,0.0,0.0,56,0.00,BKN,,0.00,469.0,WeatherDisplay:10.37,2013-08-10 20:19:00,
2013-08-10 15:24:00,72.7,57.5,30.13,SW,228,0.0,0.0,59,0.00,BKN,,0.00,617.0,WeatherDisplay:10.37,2013-08-10 20:24:00,
2013-08-10 15:29:00,73.3,54.1,30.13,ENE,57,0.0,0.5,51,0.00,BKN,,0.00,997.0,WeatherDisplay:10.37,2013-08-10 20:29:00,
2013-08-10 15:34:00,73.8,55.1,30.13,East,90,2.3,2.3,52,0.00,BKN,,0.00,958.0,WeatherDisplay:10.37,2013-08-10 20:34:00,
2013-08-10 15:39:00,74.1,54.3,30.13,ESE,109,2.3,2.3,50,0.00,BKN,,0.00,512.0,WeatherDisplay:10.37,2013-08-10 20:39:00,
2013-08-10 15:44:00,74.4,57.7,30.13,SSW,195,0.0,0.0,56,0.00,BKN,,0.00,824.0,WeatherDisplay:10.37,2013-08-10 20:44:00,
2013-08-10 15:49:00,74.7,52.5,30.12,South,183,1.1,0.0,46,0.00,BKN,,0.00,826.0,WeatherDisplay:10.37,2013-08-10 20:49:00,
2013-08-10 15:54:00,74.5,56.8,30.12,South,182,1.1,1.1,54,0.00,BKN,,0.00,485.0,WeatherDisplay:10.37,2013-08-10 20:54:00,
2013-08-10 15:59:00,74.4,55.1,30.12,South,175,3.5,3.5,51,0.00,BKN,,0.00,735.0,WeatherDisplay:10.37,2013-08-10 20:59:00,
2013-08-10 16:04:00,74.5,54.6,30.12,SSW,195,3.5,3.5,50,0.00,SCT,,0.00,717.0,WeatherDisplay:10.37,2013-08-10 21:04:00,
2013-08-10 16:09:00,74.5,56.2,30.12,WSW,251,4.6,4.6,53,0.00,SCT,,0.00,708.0,WeatherDisplay:10.37,2013-08-10 21:09:00,
2013-08-10 16:14:00,74.6,55.3,30.12,NNW,327,3.5,3.5,51,0.00,SCT,,0.00,693.0,WeatherDisplay:10.37,2013-08-10 21:14:00,
2013-08-10 16:20:00,74.6,53.6,30.12,SSW,199,2.3,2.3,48,0.00,SCT,,0.00,686.0,WeatherDisplay:10.37,2013-08-10 21:20:00,
2013-08-10 16:25:00,74.7,53.1,30.12,WSW,248,2.3,0.0,47,0.00,SCT,,0.00,671.0,WeatherDisplay:10.37,2013-08-10 21:25:00,
2013-08-10 16:30:00,74.9,55.0,30.12,WSW,246,2.0,2.0,50,0.00,SCT,,0.00,657.0,WeatherDisplay:10.37,2013-08-10 21:30:00,
2013-08-10 16:35:00,75.0,56.2,30.11,West,268,2.3,2.3,52,0.00,SCT,,0.00,654.0,WeatherDisplay:10.37,2013-08-10 21:35:00,
2013-08-10 16:40:00,75.0,57.2,30.11,NW,307,1.1,1.1,54,0.00,SCT,,0.00,638.0,WeatherDisplay:10.37,2013-08-10 21:40:00,
2013-08-10 16:45:00,75.0,54.5,30.11,NE,40,2.3,2.3,49,0.00,SCT,,0.00,619.0,WeatherDisplay:10.37,2013-08-10 21:45:00,
2013-08-10 16:50:00,74.8,56.5,30.11,NNW,327,2.3,2.3,53,0.00,SCT,,0.00,598.0,WeatherDisplay:10.37,2013-08-10 21:50:00,
2013-08-10 16:55:00,74.9,55.6,30.11,North,11,1.1,0.0,51,0.00,SCT,,0.00,580.0,WeatherDisplay:10.37,2013-08-10 21:55:00,
2013-08-10 17:00:00,74.8,57.0,30.11,NNE,17,1.1,0.0,54,0.00,SCT,,0.00,568.0,WeatherDisplay:10.37,2013-08-10 22:00:00,
2013-08-10 17:05:00,74.9,56.6,30.11,NNE,17,0.0,0.0,53,0.00,OVC,,0.00,550.0,WeatherDisplay:10.37,2013-08-10 22:05:00,
2013-08-10 17:10:00,75.1,55.7,30.11,NNW,329,1.1,0.0,51,0.00,OVC,,0.00,536.0,WeatherDisplay:10.37,2013-08-10 22:10:00,
2013-08-10 17:15:00,75.0,53.4,30.10,WNW,300,2.3,0.0,47,0.00,OVC,,0.00,522.0,WeatherDisplay:10.37,2013-08-10 22:15:00,
2013-08-10 17:20:00,74.9,55.0,30.10,West,267,2.0,2.0,50,0.00,OVC,,0.00,508.0,WeatherDisplay:10.37,2013-08-10 22:20:00,
2013-08-10 17:25:00,75.0,55.1,30.10,West,267,0.0,0.0,50,0.00,OVC,,0.00,496.0,WeatherDisplay:10.37,2013-08-10 22:25:00,
2013-08-10 17:30:00,75.0,54.0,30.10,SW,225,2.3,2.3,48,0.00,OVC,,0.00,476.0,WeatherDisplay:10.37,2013-08-10 22:30:00,
2013-08-10 17:35:00,75.0,56.2,30.10,WNW,289,0.0,0.2,52,0.00,OVC,,0.00,109.0,WeatherDisplay:10.37,2013-08-10 22:35:00,
2013-08-10 17:40:00,74.2,53.8,30.10,WSW,243,2.3,2.3,49,0.00,OVC,,0.00,51.0,WeatherDisplay:10.37,2013-08-10 22:40:00,
2013-08-10 17:45:00,73.3,55.6,30.10,NW,304,1.1,1.1,54,0.00,OVC,,0.00,46.0,WeatherDisplay:10.37,2013-08-10 22:45:00,
2013-08-10 17:50:00,72.5,52.8,30.10,NW,318,0.0,0.5,50,0.00,OVC,,0.00,49.0,WeatherDisplay:10.37,2013-08-10 22:50:00,
2013-08-10 17:55:00,71.9,53.8,30.10,WSW,257,2.3,2.3,53,0.00,OVC,,0.00,44.0,WeatherDisplay:10.37,2013-08-10 22:55:00,
2013-08-10 18:00:00,71.5,52.4,30.10,WSW,258,2.3,2.3,51,0.00,OVC,,0.00,121.0,WeatherDisplay:10.37,2013-08-10 23:00:00,
2013-08-10 18:05:00,71.1,54.6,30.10,WSW,255,2.3,2.3,56,0.00,SCT,,0.00,42.0,WeatherDisplay:10.37,2013-08-10 23:05:00,
2013-08-10 18:10:00,70.6,54.1,30.10,North,5,2.3,2.3,56,0.00,SCT,,0.00,37.0,WeatherDisplay:10.37,2013-08-10 23:10:00,
2013-08-10 18:15:00,70.1,55.1,30.10,North,5,0.0,0.0,59,0.00,SCT,,0.00,39.0,WeatherDisplay:10.37,2013-08-10 23:15:00,
2013-08-10 18:20:00,69.6,56.9,30.10,West,267,1.1,0.0,64,0.00,SCT,,0.00,33.0,WeatherDisplay:10.37,2013-08-10 23:20:00,
2013-08-10 18:25:00,69.2,58.2,30.10,West,267,1.1,0.0,68,0.00,SCT,,0.00,32.0,WeatherDisplay:10.37,2013-08-10 23:25:00,
2013-08-10 18:30:00,68.8,57.0,30.10,NNW,336,2.3,0.0,66,0.00,SCT,,0.00,32.0,WeatherDisplay:10.37,2013-08-10 23:30:00,
2013-08-10 18:35:00,68.5,57.5,30.10,NW,312,2.3,2.3,68,0.00,SCT,,0.00,30.0,WeatherDisplay:10.37,2013-08-10 23:35:00,
2013-08-10 18:40:00,68.3,56.1,30.10,NW,306,1.0,1.0,65,0.00,SCT,,0.00,32.0,WeatherDisplay:10.37,2013-08-10 23:40:00,
2013-08-10 18:45:00,68.0,56.6,30.10,WNW,295,1.0,0.0,67,0.00,SCT,,0.00,35.0,WeatherDisplay:10.37,2013-08-10 23:45:00,
2013-08-10 18:50:00,67.8,57.3,30.10,NNW,331,1.1,0.0,69,0.00,SCT,,0.00,46.0,WeatherDisplay:10.37,2013-08-10 23:50:00,
2013-08-10 18:55:00,67.5,57.4,30.10,WNW,294,0.0,0.0,70,0.00,SCT,,0.00,42.0,WeatherDisplay:10.37,2013-08-10 23:55:00,
2013-08-10 19:00:00,67.0,56.1,30.09,NNW,332,1.1,1.1,68,0.00,SCT,,0.00,35.0,WeatherDisplay:10.37,2013-08-11 00:00:00,
2013-08-10 19:05:00,66.9,56.4,30.09,NW,320,0.0,0.0,69,0.00,OVC,,0.00,35.0,WeatherDisplay:10.37,2013-08-11 00:05:00,
2013-08-10 19:10:00,66.5,56.4,30.09,NW,320,0.0,0.0,70,0.00,OVC,,0.00,25.0,WeatherDisplay:10.37,2013-08-11 00:10:00,
2013-08-10 19:15:00,66.1,56.0,30.09,NW,320,0.0,0.0,70,0.00,OVC,,0.00,30.0,WeatherDisplay:10.37,2013-08-11 00:15:00,
2013-08-10 19:20:00,65.7,56.0,30.09,NW,320,0.0,0.0,71,0.00,OVC,,0.00,25.0,WeatherDisplay:10.37,2013-08-11 00:20:00,
2013-08-10 19:25:00,65.4,56.1,30.09,NW,320,0.0,0.0,72,0.00,OVC,,0.00,18.0,WeatherDisplay:10.37,2013-08-11 00:25:00,
2013-08-10 19:30:00,65.1,56.6,30.09,NW,320,0.0,0.0,74,0.00,OVC,,0.00,11.0,WeatherDisplay:10.37,2013-08-11 00:30:00,
2013-08-10 19:35:00,64.7,56.2,30.09,NW,320,0.0,0.0,74,0.00,OVC,,0.00,14.0,WeatherDisplay:10.37,2013-08-11 00:35:00,
2013-08-10 19:40:00,64.3,56.6,30.09,NW,320,0.0,0.0,76,0.00,OVC,,0.00,14.0,WeatherDisplay:10.37,2013-08-11 00:40:00,
2013-08-10 19:45:00,64.0,57.0,30.09,NW,320,0.0,0.0,78,0.00,OVC,,0.00,11.0,WeatherDisplay:10.37,2013-08-11 00:45:00,
2013-08-10 19:50:00,63.8,57.5,30.08,NW,320,0.0,0.0,80,0.00,OVC,,0.00,7.0,WeatherDisplay:10.37,2013-08-11 00:50:00,
2013-08-10 19:55:00,63.5,57.2,30.09,NW,320,0.0,0.0,80,0.00,OVC,,0.00,7.0,WeatherDisplay:10.37,2013-08-11 00:55:00,
2013-08-10 20:00:00,63.2,57.3,30.09,NW,320,0.0,0.0,81,0.00,OVC,,0.00,7.0,WeatherDisplay:10.37,2013-08-11 01:00:00,
2013-08-10 20:05:00,62.8,57.2,30.09,NW,320,0.0,0.0,82,0.00,CLR,,0.00,5.0,WeatherDisplay:10.37,2013-08-11 01:05:00,
2013-08-10 20:06:00,62.7,57.1,30.09,NW,320,0.0,0.0,82,0.00,CLR,,0.00,5.0,WeatherDisplay:10.37,2013-08-11 01:06:00,
2013-08-10 20:11:00,62.4,57.2,30.09,NW,320,0.0,0.0,83,0.00,CLR,,0.00,0.0,WeatherDisplay:10.37,2013-08-11 01:11:00,
2013-08-10 20:16:00,62.1,56.9,30.09,NW,320,0.0,0.0,83,0.00,CLR,,0.00,0.0,WeatherDisplay:10.37,2013-08-11 01:16:00,
2013-08-10 20:21:00,61.9,57.0,30.08,NW,320,0.0,0.0,84,0.00,CLR,,0.00,0.0,WeatherDisplay:10.37,2013-08-11 01:21:00,
2013-08-10 20:26:00,61.6,56.7,30.09,NW,320,0.0,0.0,84,0.00,CLR,,0.00,0.0,WeatherDisplay:10.37,2013-08-11 01:26:00,
2013-08-10 20:31:00,61.0,56.1,30.09,NW,320,0.0,0.0,84,0.00,CLR,,0.00,0.0,WeatherDisplay:10.37,2013-08-11 01:31:00,
2013-08-10 20:36:00,60.6,56.1,30.09,NW,320,0.0,0.0,85,0.00,CLR,,0.00,0.0,WeatherDisplay:10.37,2013-08-11 01:36:00,
2013-08-10 20:41:00,60.3,56.1,30.09,NW,320,0.0,0.0,86,0.00,CLR,,0.00,0.0,WeatherDisplay:10.37,2013-08-11 01:41:00,
2013-08-10 20:46:00,60.0,55.8,30.09,NW,320,0.0,0.0,86,0.00,CLR,,0.00,0.0,WeatherDisplay:10.37,2013-08-11 01:46:00,
2013-08-10 20:51:00,59.6,55.4,30.09,NW,320,0.0,0.0,86,0.00,CLR,,0.00,0.0,WeatherDisplay:10.37,2013-08-11 01:51:00,
2013-08-10 20:56:00,59.3,55.4,30.09,NW,320,0.0,0.0,87,0.00,CLR,,0.00,0.0,WeatherDisplay:10.37,2013-08-11 01:56:00,
2013-08-10 21:01:00,59.0,55.1,30.09,NW,320,0.0,0.0,87,0.00,CLR,,0.00,0.0,WeatherDisplay:10.37,2013-08-11 02:01:00,
2013-08-10 21:06:00,58.5,55.0,30.09,NW,320,0.0,0.0,88,0.00,BKN,,0.00,0.0,WeatherDisplay:10.37,2013-08-11 02:06:00,
2013-08-10 21:11:00,58.1,54.9,30.09,NW,320,0.0,0.0,89,0.00,BKN,,0.00,0.0,WeatherDisplay:10.37,2013-08-11 02:11:00,
2013-08-10 21:16:00,57.9,54.7,30.09,NW,320,0.0,0.0,89,0.00,BKN,,0.00,0.0,WeatherDisplay:10.37,2013-08-11 02:16:00,
2013-08-10 21:21:00,57.7,54.5,30.09,NW,320,0.0,0.0,89,0.00,BKN,,0.00,0.0,WeatherDisplay:10.37,2013-08-11 02:21:00,
2013-08-10 21:26:00,57.3,54.1,30.09,NW,320,0.0,0.0,89,0.00,BKN,,0.00,0.0,WeatherDisplay:10.37,2013-08-11 02:26:00,
2013-08-10 21:31:00,57.0,54.1,30.09,NW,320,0.0,0.0,90,0.00,BKN,,0.00,0.0,WeatherDisplay:10.37,2013-08-11 02:31:00,
2013-08-10 21:36:00,56.7,53.8,30.09,NW,320,0.0,0.0,90,0.00,BKN,,0.00,0.0,WeatherDisplay:10.37,2013-08-11 02:36:00,
2013-08-10 21:41:00,56.4,53.5,30.09,NW,320,0.0,0.0,90,0.00,BKN,,0.00,0.0,WeatherDisplay:10.37,2013-08-11 02:41:00,
2013-08-10 21:46:00,56.2,53.6,30.09,NW,320,0.0,0.0,91,0.00,BKN,,0.00,0.0,WeatherDisplay:10.37,2013-08-11 02:46:00,
2013-08-10 21:51:00,56.0,53.4,30.08,NW,320,0.0,0.0,91,0.00,BKN,,0.00,0.0,WeatherDisplay:10.37,2013-08-11 02:51:00,
2013-08-10 21:56:00,55.8,53.2,30.08,NW,320,0.0,0.0,91,0.00,BKN,,0.00,0.0,WeatherDisplay:10.37,2013-08-11 02:56:00,
2013-08-10 22:02:00,55.5,52.9,30.09,NW,320,0.0,0.0,91,0.00,CLR,,0.00,0.0,WeatherDisplay:10.37,2013-08-11 03:02:00,
2013-08-10 22:07:00,55.3,52.7,30.09,NW,320,0.0,0.0,91,0.00,CLR,,0.00,0.0,WeatherDisplay:10.37,2013-08-11 03:07:00,
2013-08-10 22:12:00,55.1,52.5,30.09,NW,320,0.0,0.0,91,0.00,CLR,,0.00,0.0,WeatherDisplay:10.37,2013-08-11 03:12:00,
2013-08-10 22:18:00,54.8,52.2,30.09,NW,320,0.0,0.0,91,0.00,CLR,,0.00,0.0,WeatherDisplay:10.37,2013-08-11 03:18:00,
2013-08-10 22:23:00,54.6,52.0,30.09,NW,320,0.0,0.0,91,0.00,CLR,,0.00,0.0,WeatherDisplay:10.37,2013-08-11 03:23:00,
2013-08-10 22:28:00,54.3,52.0,30.09,NW,320,0.0,0.0,92,0.00,CLR,,0.00,0.0,WeatherDisplay:10.37,2013-08-11 03:28:00,
2013-08-10 22:33:00,54.2,51.9,30.09,NW,320,0.0,0.0,92,0.00,CLR,,0.00,0.0,WeatherDisplay:10.37,2013-08-11 03:33:00,
2013-08-10 22:38:00,54.0,51.7,30.09,NW,320,0.0,0.0,92,0.00,CLR,,0.00,0.0,WeatherDisplay:10.37,2013-08-11 03:38:00,
2013-08-10 22:43:00,53.8,51.5,30.09,NW,320,0.0,0.0,92,0.00,CLR,,0.00,0.0,WeatherDisplay:10.37,2013-08-11 03:43:00,
2013-08-10 22:48:00,53.7,51.4,30.09,NW,320,0.0,0.0,92,0.00,CLR,,0.00,0.0,WeatherDisplay:10.37,2013-08-11 03:48:00,
2013-08-10 22:54:00,53.5,51.2,30.09,NW,320,0.0,0.0,92,0.00,CLR,,0.00,0.0,WeatherDisplay:10.37,2013-08-11 03:54:00,
2013-08-10 22:59:00,53.2,50.9,30.10,NW,320,0.0,0.0,92,0.00,CLR,,0.00,0.0,WeatherDisplay:10.37,2013-08-11 03:59:00,
2013-08-10 23:01:00,53.1,50.8,30.10,NW,320,0.0,0.0,92,0.00,CLR,,0.00,0.0,WeatherDisplay:10.37,2013-08-11 04:01:00,
2013-08-10 23:06:00,52.9,50.6,30.09,NW,320,0.0,0.0,92,0.00,CLR,,0.00,0.0,WeatherDisplay:10.37,2013-08-11 04:06:00,
2013-08-10 23:11:00,52.7,50.4,30.09,NW,320,0.0,0.0,92,0.00,CLR,,0.00,0.0,WeatherDisplay:10.37,2013-08-11 04:11:00,
2013-08-10 23:16:00,52.6,50.6,30.09,NW,320,0.0,0.0,93,0.00,CLR,,0.00,0.0,WeatherDisplay:10.37,2013-08-11 04:16:00,
2013-08-10 23:21:00,52.5,50.5,30.09,NW,320,0.0,0.0,93,0.00,CLR,,0.00,0.0,WeatherDisplay:10.37,2013-08-11 04:21:00,
2013-08-10 23:26:00,52.3,50.3,30.09,NW,320,0.0,0.0,93,0.00,CLR,,0.00,0.0,WeatherDisplay:10.37,2013-08-11 04:26:00,
2013-08-10 23:31:00,52.2,50.2,30.09,NW,320,0.0,0.0,93,0.00,CLR,,0.00,0.0,WeatherDisplay:10.37,2013-08-11 04:31:00,
2013-08-10 23:36:00,52.0,50.0,30.09,NW,320,0.0,0.0,93,0.00,CLR,,0.00,0.0,WeatherDisplay:10.37,2013-08-11 04:36:00,
2013-08-10 23:41:00,51.8,49.8,30.10,NW,320,0.0,0.0,93,0.00,CLR,,0.00,0.0,WeatherDisplay:10.37,2013-08-11 04:41:00,
2013-08-10 23:46:00,51.6,49.6,30.10,NW,320,0.0,0.0,93,0.00,CLR,,0.00,0.0,WeatherDisplay:10.37,2013-08-11 04:46:00,
2013-08-10 23:51:00,51.4,49.4,30.10,NW,320,0.0,0.0,93,0.00,CLR,,0.00,0.0,WeatherDisplay:10.37,2013-08-11 04:51:00,
2013-08-10 23:56:00,51.2,49.2,30.10,NW,320,0.0,0.0,93,0.00,CLR,,0.00,0.0,WeatherDisplay:10.37,2013-08-11 04:56:00,